Tracking 31027 objects as of 19-Jul-2025
HD Live streaming from Space Station
objects crossing your sky now

STARLINK-3392

Track STARLINK-3392 now!
10-day predictions
STARLINK-3392 is classified as:


NORAD ID: 51123
Int'l Code: 2022-005V
Perigee: 546.0 km
Apogee: 547.7 km
Inclination: 53.2 °
Period: 95.4 minutes
Semi major axis: 6917 km
RCS: Unknown
Launch date: January 19, 2022
Source: United States (US)
Launch site: AIR FORCE EASTERN TEST RANGE (AFETR)
Your satellite tracking list
DELTA 1 DEB
Track 1 satellite(s)




NASA's NSSDC Master Catalog

Two Line Element Set (TLE):
1 51123U 22005V   25199.55879927  .00000321  00000-0  38239-4 0  9994
2 51123  53.2168 260.1778 0001241  77.8038 282.3094 15.08844428193534
Source of the keplerian elements: AFSPC